METAR Formatted Surface Weather Observation
Issued by NWS

Home | Current Version | Previous Version | Text Only | Print | Product List | Glossary On
Versions: 1 2 3 4 5 6 7 8 9 10 11 12 13 14 15 16 17 18 19 20 21 22 23 24 25 26 27 28 29 30 31 32 33 34 35 36 37 38 39 40 41 42 43 44 45 46 47 48 49 50
796
SAUS44 KCRP 141757
MTRNGP
METAR KNGP 141756Z AUTO 17016G26KT 10SM CLR 24/17 A3000 RMK AO2 PK
WND 16026/1716 SLP159 T02440167 10244 20172 58014



USA.gov is the U.S. government's official web portal to all federal, state and local government web resources and services.